Location: Brivio
(45.7333°N, 9.4500°E)
Time: 22:02:27
(UTC+00:00)

STARLINK-33 - Pass Details

Date: 18 October 2019
Orbit: 548 x 551 km, 53.0° (Epoch: 11 November)

Event Time Altitude Azimuth Distance (km) Brightness Sun altitude
Rises 17:06:04 0° 259° (WSW) 2,710 9.8 -6.7°
Reaches altitude 10° 17:08:23 10° 265° (W) 1,819 8.1 -7.1°
Maximum altitude 17:12:21 45° 339° (NNW) 754 4.4 -7.8°
Drops below altitude 10° 17:16:21 10° 53° (NE) 1,825 5.8 -8.5°
Enters shadow 17:16:48 - 55° (NE) 1,995 5.9 -8.6°
